Regional Weather Roundup
Issued by NWS

Home | Current Version | Previous Version | Graphics & Text | Print | Product List | Glossary On
Versions: 1 2 3 4 5 6 7 8 9 10 11 12 13 14 15 16 17 18 19 20 21 22 23 24 25 26 27 28 29 30 31 32 33 34 35 36 37 38 39 40 41 42 43 44 45 46 47 48 49 50
000
ASUS43 KFSD 210410
RWRSD

WEATHER ROUNDUP FOR SOUTH DAKOTA
NATIONAL WEATHER SERVICE SIOUX FALLS SD
1100 PM CDT SAT SEP 20 2014

NOTE: "FAIR" INDICATES FEW OR NO CLOUDS BELOW 12,000 FEET WITH NO
SIGNIFICANT WEATHER AND/OR OBSTRUCTIONS TO VISIBILITY.


SDZ001>005-009-010-012>017-210500-
NORTHWEST AND NORTH CENTRAL SOUTH DAKOTA

CITY           SKY/WX    TMP DP  RH WIND       PRES   REMARKS
BUFFALO          N/A     58  35  42 N17       30.17R
FAITH            N/A     51  38  60 W10       30.20R
MOBRIDGE       CLEAR     53  44  71 NW7       30.11R
$$

SDZ012>016-024>037-041>051-057-063-072>074-210500-
SOUTHWEST AND SOUTH CENTRAL SOUTH DAKOTA

CITY           SKY/WX    TMP DP  RH WIND       PRES   REMARKS
RAPID CTY ARPT CLEAR     53  40  61 NW9       30.25R
PIERRE         CLEAR     55  40  56 NW10      30.13R
CUSTER         CLEAR     49  32  52 W3        30.34R
ELLSWORTH AFB  CLEAR     55  40  58 NW7       30.25R
PHILIP         CLEAR     54  40  59 N12       30.19R
PINE RIDGE     CLEAR     46  41  82 CALM      30.26R
WINNER         FAIR      56  39  53 NW9       30.15R
$$

SDZ004>011-016>023-039-040-210500-
NORTHEAST SOUTH DAKOTA

CITY           SKY/WX    TMP DP  RH WIND       PRES   REMARKS
ABERDEEN       CLEAR     61  41  47 NW15      30.05R
WATERTOWN      CLEAR     58  45  62 W10       30.01R
SISSETON         N/A     62  43  49 NW15      29.95R
$$

SDZ017-020-022-023-036>040-048>070-210500-
SOUTHEAST SOUTH DAKOTA

CITY           SKY/WX    TMP DP  RH WIND       PRES   REMARKS
SIOUX FALLS    CLEAR     58  47  66 W6        30.04R
HURON          CLEAR     56  40  55 NW10      30.06R
CHAMBERLAIN    CLEAR     55  41  59 W7        30.12R
MITCHELL       CLEAR     55  43  63 NW9       30.07R
YANKTON        CLEAR     57  46  67 W6        30.07R
$$

ABBREVIATIONS USED IN REMARKS
   TC - TEMPERATURE IN CELSIUS
  WCI - WIND CHILL INDEX
   HX - HEAT INDEX
  VSB - VISIBILITY



USA.gov is the U.S. government's official web portal to all federal, state and local government web resources and services.